Time,TemperatureF,DewpointF,PressureIn,WindDirection,WindDirectionDegrees,WindSpeedMPH,WindSpeedGustMPH,Humidity,HourlyPrecipIn,Conditions,Clouds,dailyrainin,SoftwareType,DateUTC
2013-10-09 00:00:00,60.1,41.5,29.92,North,0,0.0,0.0,50,0.00,,,0.00,WUHU216HW,2013-10-09 05:00:00,
2013-10-09 00:05:00,60.1,41.5,29.92,North,0,0.0,0.0,50,0.00,,,0.00,WUHU216HW,2013-10-09 05:05:00,
2013-10-09 00:30:00,59.6,39.9,29.92,North,0,0.0,0.0,48,0.00,,,0.00,WUHU216HW,2013-10-09 05:30:00,
2013-10-09 00:35:00,59.6,39.9,29.92,North,0,0.0,0.0,48,0.00,,,0.00,WUHU216HW,2013-10-09 05:35:00,
2013-10-09 01:00:00,58.7,37.3,29.93,North,0,0.0,0.0,45,0.00,,,0.00,WUHU216HW,2013-10-09 06:00:00,
2013-10-09 01:05:00,58.7,37.3,29.93,North,0,0.0,0.0,45,0.00,,,0.00,WUHU216HW,2013-10-09 06:05:00,
2013-10-09 01:30:00,58.3,35.3,29.92,North,0,0.0,0.0,42,0.00,,,0.00,WUHU216HW,2013-10-09 06:30:00,
2013-10-09 01:35:00,58.3,35.3,29.92,North,0,0.0,0.0,42,0.00,,,0.00,WUHU216HW,2013-10-09 06:35:00,
2013-10-09 02:00:00,58.1,34.5,29.93,North,0,0.0,0.0,41,0.00,,,0.00,WUHU216HW,2013-10-09 07:00:00,
2013-10-09 02:05:00,58.1,34.5,29.93,North,0,0.0,0.0,41,0.00,,,0.00,WUHU216HW,2013-10-09 07:05:00,
2013-10-09 02:30:00,57.8,31.5,29.93,North,0,0.0,0.0,37,0.00,,,0.00,WUHU216HW,2013-10-09 07:30:00,
2013-10-09 02:35:00,57.8,31.5,29.93,North,0,0.0,0.0,37,0.00,,,0.00,WUHU216HW,2013-10-09 07:35:00,
2013-10-09 03:00:00,57.6,30.0,29.93,North,0,0.0,0.0,35,0.00,,,0.00,WUHU216HW,2013-10-09 08:00:00,
2013-10-09 03:05:00,57.6,30.0,29.93,North,0,0.0,0.0,35,0.00,,,0.00,WUHU216HW,2013-10-09 08:05:00,
2013-10-09 03:30:00,57.6,28.5,29.92,North,0,0.0,0.0,33,0.00,,,0.00,WUHU216HW,2013-10-09 08:30:00,
2013-10-09 03:35:00,57.6,28.5,29.92,North,0,0.0,0.0,33,0.00,,,0.00,WUHU216HW,2013-10-09 08:35:00,
2013-10-09 04:00:00,57.1,23.0,29.92,North,0,0.0,0.0,27,0.00,,,0.00,WUHU216HW,2013-10-09 09:00:00,
2013-10-09 04:05:00,57.1,23.0,29.92,North,0,0.0,0.0,27,0.00,,,0.00,WUHU216HW,2013-10-09 09:05:00,
2013-10-09 04:30:00,56.3,11.3,29.92,North,0,0.0,0.0,17,0.00,,,0.00,WUHU216HW,2013-10-09 09:30:00,
2013-10-09 04:35:00,56.3,11.3,29.92,North,0,0.0,0.0,17,0.00,,,0.00,WUHU216HW,2013-10-09 09:35:00,
2013-10-09 05:00:00,56.5,5.2,29.93,North,0,0.0,0.0,13,0.00,,,0.00,WUHU216HW,2013-10-09 10:00:00,
2013-10-09 05:05:00,56.5,5.2,29.93,North,0,0.0,0.0,13,0.00,,,0.00,WUHU216HW,2013-10-09 10:05:00,
2013-10-09 05:30:00,54.4,-1.1,29.93,North,0,0.0,0.0,1,0.00,,,0.00,WUHU216HW,2013-10-09 10:30:00,
2013-10-09 05:35:00,54.4,-1.1,29.93,North,0,0.0,0.0,1,0.00,,,0.00,WUHU216HW,2013-10-09 10:35:00,
2013-10-09 06:00:00,51.8,-3.1,29.93,North,0,0.0,0.0,1,0.00,,,0.00,WUHU216HW,2013-10-09 11:00:00,
2013-10-09 06:05:00,51.8,-3.1,29.93,North,0,0.0,0.0,1,0.00,,,0.00,WUHU216HW,2013-10-09 11:05:00,
2013-10-09 06:30:00,50.9,-3.8,29.93,North,0,0.0,0.0,1,0.00,,,0.00,WUHU216HW,2013-10-09 11:30:00,
2013-10-09 06:35:00,50.9,-3.8,29.93,North,0,0.0,0.0,1,0.00,,,0.00,WUHU216HW,2013-10-09 11:35:00,
2013-10-09 07:00:00,50.4,-4.2,29.93,North,0,0.0,0.0,1,0.00,,,0.00,WUHU216HW,2013-10-09 12:00:00,
2013-10-09 07:04:00,50.4,-4.2,29.93,North,0,0.0,0.0,1,0.00,,,0.00,WUHU216HW,2013-10-09 12:04:00,
2013-10-09 07:09:00,50.4,-4.2,29.93,North,0,0.0,0.0,1,0.00,,,0.00,WUHU216HW,2013-10-09 12:09:00,
2013-10-09 07:30:00,50.2,-4.3,29.94,North,0,0.0,0.0,1,0.00,,,0.00,WUHU216HW,2013-10-09 12:30:00,
2013-10-09 07:35:00,50.2,-4.3,29.94,North,0,0.0,0.0,1,0.00,,,0.00,WUHU216HW,2013-10-09 12:35:00,
2013-10-09 08:00:00,49.5,-4.8,29.94,North,0,0.0,0.0,1,0.00,,,0.00,WUHU216HW,2013-10-09 13:00:00,
2013-10-09 08:05:00,49.5,-4.8,29.94,North,0,0.0,0.0,1,0.00,,,0.00,WUHU216HW,2013-10-09 13:05:00,
2013-10-09 08:30:00,50.9,-3.8,29.94,North,0,0.0,0.0,1,0.00,,,0.00,WUHU216HW,2013-10-09 13:30:00,
2013-10-09 08:35:00,50.9,-3.8,29.94,North,0,0.0,0.0,1,0.00,,,0.00,WUHU216HW,2013-10-09 13:35:00,
2013-10-09 09:00:00,54.4,-1.1,29.94,North,0,0.0,0.0,1,0.00,,,0.00,WUHU216HW,2013-10-09 14:00:00,
2013-10-09 09:05:00,54.4,-1.1,29.94,North,0,0.0,0.0,1,0.00,,,0.00,WUHU216HW,2013-10-09 14:05:00,
2013-10-09 09:30:00,56.9,0.8,29.95,North,0,0.0,0.0,1,0.00,,,0.00,WUHU216HW,2013-10-09 14:30:00,
2013-10-09 09:35:00,56.9,0.8,29.95,North,0,0.0,0.0,1,0.00,,,0.00,WUHU216HW,2013-10-09 14:35:00,
2013-10-09 10:00:00,59.8,3.1,29.95,North,0,0.0,0.0,1,0.00,,,0.00,WUHU216HW,2013-10-09 15:00:00,
2013-10-09 10:05:00,59.8,3.1,29.95,North,0,0.0,0.0,1,0.00,,,0.00,WUHU216HW,2013-10-09 15:05:00,
2013-10-09 11:00:00,65.7,40.1,29.95,North,0,0.0,0.0,39,0.00,,,0.00,WUHU216HW,2013-10-09 16:00:00,
2013-10-09 11:05:00,65.7,38.6,29.95,North,0,0.0,0.0,37,0.00,,,0.00,WUHU216HW,2013-10-09 16:05:00,
2013-10-09 11:10:00,65.7,38.6,29.95,North,0,0.0,0.0,37,0.00,,,0.00,WUHU216HW,2013-10-09 16:10:00,
2013-10-09 11:30:00,69.7,50.2,29.95,North,0,0.0,0.0,50,0.00,,,0.00,WUHU216HW,2013-10-09 16:30:00,
2013-10-09 11:35:00,69.7,50.2,29.95,North,0,0.0,0.0,50,0.00,,,0.00,WUHU216HW,2013-10-09 16:35:00,
2013-10-09 12:00:00,71.6,50.9,29.95,North,0,0.0,0.0,48,0.00,,,0.00,WUHU216HW,2013-10-09 17:00:00,
2013-10-09 12:05:00,71.6,50.9,29.95,North,0,0.0,0.0,48,0.00,,,0.00,WUHU216HW,2013-10-09 17:05:00,
2013-10-09 12:30:00,73.8,51.6,29.95,North,0,0.0,0.0,46,0.00,,,0.00,WUHU216HW,2013-10-09 17:30:00,
2013-10-09 12:35:00,73.8,51.6,29.95,North,0,0.0,0.0,46,0.00,,,0.00,WUHU216HW,2013-10-09 17:35:00,
2013-10-09 13:00:00,75.1,52.8,29.94,North,0,0.0,0.0,46,0.00,,,0.00,WUHU216HW,2013-10-09 18:00:00,
2013-10-09 13:05:00,75.1,52.8,29.94,North,0,0.0,0.0,46,0.00,,,0.00,WUHU216HW,2013-10-09 18:05:00,
2013-10-09 13:30:00,76.9,51.4,29.93,North,0,0.0,0.0,41,0.00,,,0.00,WUHU216HW,2013-10-09 18:30:00,
2013-10-09 13:35:00,76.9,51.4,29.93,North,0,0.0,0.0,41,0.00,,,0.00,WUHU216HW,2013-10-09 18:35:00,
2013-10-09 14:00:00,78.3,52.7,29.92,North,0,0.0,0.0,41,0.00,,,0.00,WUHU216HW,2013-10-09 19:00:00,
2013-10-09 14:05:00,78.3,52.7,29.92,North,0,0.0,0.0,41,0.00,,,0.00,WUHU216HW,2013-10-09 19:05:00,
2013-10-09 14:30:00,79.9,52.7,29.91,North,0,0.0,0.0,39,0.00,,,0.00,WUHU216HW,2013-10-09 19:30:00,
2013-10-09 14:35:00,79.9,52.7,29.91,North,0,0.0,0.0,39,0.00,,,0.00,WUHU216HW,2013-10-09 19:35:00,
2013-10-09 15:00:00,80.3,52.3,29.90,North,0,0.0,0.0,38,0.00,,,0.00,WUHU216HW,2013-10-09 20:00:00,
2013-10-09 15:05:00,80.3,52.3,29.90,North,0,0.0,0.0,38,0.00,,,0.00,WUHU216HW,2013-10-09 20:05:00,
2013-10-09 15:30:00,80.8,51.2,29.90,North,0,0.0,0.0,36,0.00,,,0.00,WUHU216HW,2013-10-09 20:30:00,
2013-10-09 15:35:00,80.8,51.2,29.90,North,0,0.0,0.0,36,0.00,,,0.00,WUHU216HW,2013-10-09 20:35:00,
2013-10-09 16:00:00,81.4,51.0,29.89,North,0,0.0,0.0,35,0.00,,,0.00,WUHU216HW,2013-10-09 21:00:00,
2013-10-09 16:05:00,81.4,51.0,29.89,North,0,0.0,0.0,35,0.00,,,0.00,WUHU216HW,2013-10-09 21:05:00,
2013-10-09 16:30:00,82.1,51.6,29.88,North,0,0.0,0.0,35,0.00,,,0.00,WUHU216HW,2013-10-09 21:30:00,
2013-10-09 16:35:00,82.1,51.6,29.88,North,0,0.0,0.0,35,0.00,,,0.00,WUHU216HW,2013-10-09 21:35:00,
2013-10-09 17:00:00,81.7,52.8,29.89,North,0,0.0,0.0,37,0.00,,,0.00,WUHU216HW,2013-10-09 22:00:00,
2013-10-09 17:05:00,81.7,52.8,29.89,North,0,0.0,0.0,37,0.00,,,0.00,WUHU216HW,2013-10-09 22:05:00,
2013-10-09 17:30:00,81.2,53.1,29.89,North,0,0.0,0.0,38,0.00,,,0.00,WUHU216HW,2013-10-09 22:30:00,
2013-10-09 17:35:00,81.2,53.1,29.89,North,0,0.0,0.0,38,0.00,,,0.00,WUHU216HW,2013-10-09 22:35:00,
2013-10-09 18:00:00,80.1,53.7,29.89,North,0,0.0,0.0,40,0.00,,,0.00,WUHU216HW,2013-10-09 23:00:00,
2013-10-09 18:05:00,80.1,53.7,29.89,North,0,0.0,0.0,40,0.00,,,0.00,WUHU216HW,2013-10-09 23:05:00,
2013-10-09 18:30:00,74.9,52.7,29.90,North,0,0.0,0.0,46,0.00,,,0.00,WUHU216HW,2013-10-09 23:30:00,
2013-10-09 18:35:00,74.9,52.7,29.90,North,0,0.0,0.0,46,0.00,,,0.00,WUHU216HW,2013-10-09 23:35:00,
2013-10-09 19:00:00,72.0,51.8,29.90,North,0,0.0,0.0,49,0.00,,,0.00,WUHU216HW,2013-10-10 00:00:00,
2013-10-09 19:05:00,72.0,51.8,29.90,North,0,0.0,0.0,49,0.00,,,0.00,WUHU216HW,2013-10-10 00:05:00,
2013-10-09 19:30:00,69.3,50.0,29.91,North,0,0.0,0.0,50,0.00,,,0.00,WUHU216HW,2013-10-10 00:30:00,
2013-10-09 19:35:00,69.3,50.0,29.91,North,0,0.0,0.0,50,0.00,,,0.00,WUHU216HW,2013-10-10 00:35:00,
2013-10-09 20:00:00,67.3,47.0,29.92,North,0,0.0,0.0,48,0.00,,,0.00,WUHU216HW,2013-10-10 01:00:00,
2013-10-09 20:05:00,67.3,47.0,29.92,North,0,0.0,0.0,48,0.00,,,0.00,WUHU216HW,2013-10-10 01:05:00,
2013-10-09 20:30:00,66.6,46.3,29.92,North,0,0.0,0.0,48,0.00,,,0.00,WUHU216HW,2013-10-10 01:30:00,
2013-10-09 20:35:00,66.6,46.3,29.92,North,0,0.0,0.0,48,0.00,,,0.00,WUHU216HW,2013-10-10 01:35:00,
2013-10-09 21:00:00,65.3,43.9,29.93,North,0,0.0,0.0,46,0.00,,,0.00,WUHU216HW,2013-10-10 02:00:00,
2013-10-09 21:05:00,65.3,43.9,29.93,North,0,0.0,0.0,46,0.00,,,0.00,WUHU216HW,2013-10-10 02:05:00,
2013-10-09 21:30:00,64.4,40.8,29.93,North,0,0.0,0.0,42,0.00,,,0.00,WUHU216HW,2013-10-10 02:30:00,
2013-10-09 21:35:00,64.4,40.8,29.93,North,0,0.0,0.0,42,0.00,,,0.00,WUHU216HW,2013-10-10 02:35:00,
2013-10-09 22:00:00,62.8,32.4,29.95,North,0,0.0,0.0,32,0.00,,,0.00,WUHU216HW,2013-10-10 03:00:00,
2013-10-09 22:05:00,62.8,32.4,29.95,North,0,0.0,0.0,32,0.00,,,0.00,WUHU216HW,2013-10-10 03:05:00,
2013-10-09 22:30:00,62.1,25.5,29.95,North,0,0.0,0.0,25,0.00,,,0.00,WUHU216HW,2013-10-10 03:30:00,
2013-10-09 22:35:00,62.1,25.5,29.95,North,0,0.0,0.0,25,0.00,,,0.00,WUHU216HW,2013-10-10 03:35:00,
2013-10-09 23:00:00,61.4,21.0,29.95,North,0,0.0,0.0,21,0.00,,,0.00,WUHU216HW,2013-10-10 04:00:00,
2013-10-09 23:01:00,61.4,21.0,29.95,North,0,0.0,0.0,21,0.00,,,0.00,WUHU216HW,2013-10-10 04:01:00,
2013-10-09 23:02:00,61.4,21.0,29.95,North,0,0.0,0.0,21,0.00,,,0.00,WUHU216HW,2013-10-10 04:02:00,
2013-10-09 23:04:00,61.4,21.0,29.95,North,0,0.0,0.0,21,0.00,,,0.00,WUHU216HW,2013-10-10 04:04:00,
2013-10-09 23:09:00,61.4,21.0,29.95,North,0,0.0,0.0,21,0.00,,,0.00,WUHU216HW,2013-10-10 04:09:00,
2013-10-09 23:30:00,60.7,14.8,29.95,North,0,0.0,0.0,17,0.00,,,0.00,WUHU216HW,2013-10-10 04:30:00,
2013-10-09 23:35:00,60.7,14.8,29.95,North,0,0.0,0.0,17,0.00,,,0.00,WUHU216HW,2013-10-10 04:35:00,